Weather Roundup
Issued by NWS Corpus Christi, TX

Home | Current Version | Previous Version | Text Only | Print | Product List | Glossary On
Versions: 1 2 3 4 5 6 7 8 9 10 11 12 13 14 15 16 17 18 19 20 21 22 23 24 25 26 27 28 29 30 31 32 33 34 35 36 37 38 39 40 41 42 43 44 45 46 47 48 49 50
605
ASUS44 KCRP 242210
HRRCRP

SOUTH TEXAS REGIONAL WEATHER ROUNDUP
NATIONAL WEATHER SERVICE CORPUS CHRISTI TX
500 PM CDT MON JUL 24 2017


TXZ229>244-242300-
...CORPUS CHRISTI AREA OBSERVATIONS...

CITY           SKY/WX    TMP DP  RH WIND       PRES   REMARKS
CORPUS CHRISTI PTSUNNY   92  73  53 SE22G31   29.91F HX 100
NAS CORPUS CHR PTSUNNY   92  78  63 S22G30    29.93F HX 107
ROCKPORT       MOSUNNY   90  74  59 S14G23    29.93F HX  99
KINGSVILLE NAS PTSUNNY   96  76  52 SE18G30   29.90F HX 109
ALICE          SUNNY     98  70  40 SE21G26   29.87F HX 105
FALFURRIAS     MOSUNNY   98  63  32 SE15      29.88F HX  99
$$

...VICTORIA AREA OBSERVATIONS...

CITY           SKY/WX    TMP DP  RH WIND       PRES   REMARKS
VICTORIA       MOSUNNY   95  70  44 S22G29    29.94S HX 101
BEEVILLE       FAIR      96  69  41 SE22G28   29.91R HX 102
PLEASANTON     SUNNY    102  56  22 S14G20    29.88F HX 100
SAN ANTONIO    MOSUNNY   99  58  25 S10       29.92S HX  98
$$

...LAREDO AREA OBSERVATIONS...

CITY           SKY/WX    TMP DP  RH WIND       PRES   REMARKS
LAREDO         SUNNY    104  64  27 S15G22    29.84F HX 107
COTULLA        SUNNY    101  54  20 SE7G22    29.85F HX  99
DEL RIO        MOSUNNY  102  62  26 SE10G21   29.84F HX 104
MCALLEN        MOSUNNY   98  70  40 SE20G28   29.89F HX 105
HEBBRONVILLE   MOSUNNY   98  61  29 S16       29.88F HX  98
$$

...OTHER TEXAS OBSERVATIONS...

CITY           SKY/WX    TMP DP  RH WIND       PRES   REMARKS
BROWNSVILLE    MOSUNNY   89  75  63 SE20G30   29.93F HX  99
HOUSTON        PTSUNNY   95  68  41 S8        29.94F HX  99
COL. STATION   CLOUDY    97  65  34 SE9       29.93S HX  99
AUSTIN         CLOUDY    97  62  31 S6        29.92S HX  98
WACO           MOSUNNY   92  76  59 SE15      29.94S HX 104
FORT WORTH     MOSUNNY   91  75  59 E8        29.92F HX 101
WICHITA FALLS  MOSUNNY   91  71  51 E13       29.93S HX  97
LUBBOCK        CLOUDY    90  60  36 SE6       30.01S
EL PASO        MOSUNNY   91  59  33 S6        30.00F HX  90
$$

...MARINE OBSERVATIONS...

STATION/POSITION TIME  SKY/WX   TEMP    WIND        PRES    VSBY  WAVE   SWELL
                                AIR SEA DIR/SP/G                  HT/PER HT/PER
                 (UTC)          (F)     (DEG/KT/KT) (MB)    (MI)  (FT/S) (FT/S)
PORT ARANSAS     2100            85 87  150/ 18/ 20 1014.5F
BUOY 90 E PORT A 2150            85 86  140/ 10/ 12 1015.3F         3/ 6   3/ 6
BUOY 45 SE BAFFI 2150            85     160/ 16/ 17 1013.2F         5/ 6
BUOY 200 E PT IS 2150            86 87  140/ 10/ 12 1015.8F         3/ 6   2/ 6
BUOY 15 E GALVES 2150            86 87  210/ 10/ 12 1015.4F         3/ 6   2/ 6
$$




USA.gov is the U.S. government's official web portal to all federal, state and local government web resources and services.